Palos Park, Illinois, United States (60464)
Lat: 41.67N, Lon: 87.83W
Wx Zone: ILZ014
Local Info
Past Weather Observations for Friday, August 19, 2016

NOTE: This archive is for the closest National Weather Service station to Palos Park. Information may differ from the station used for current weather conditions.

Click here for Long-term Archive

Time Weather Temperature Dewpoint Humidity Pressure Winds Precip Visibility
23:53
Partly Cloudy
75°F / 24°C 70°F / 21°C 83% 29.83 in
(1010 mb)
S 6.9 mph
(S 11 kph)
- 10SM
22:53
Partly Cloudy
75°F / 24°C 70°F / 21°C 83% 29.83 in
(1010 mb)
SSE 5.8 mph
(SSE 9 kph)
- 10SM
21:53
Mostly Cloudy
75°F / 24°C 68°F / 20°C 78% 29.86 in
(1011 mb)
S 4.6 mph
(S 7 kph)
- 10SM
20:53
Partly Cloudy
77°F / 25°C 68°F / 20°C 74% 29.86 in
(1011 mb)
S 6.9 mph
(S 11 kph)
- 10SM
19:53
Partly Cloudy
79°F / 26°C 66°F / 19°C 65% 29.86 in
(1011 mb)
S 5.8 mph
(S 9 kph)
- 10SM
18:53
Mostly Cloudy
81°F / 27°C 70°F / 21°C 70% 29.83 in
(1010 mb)
S 10.4 mph
(S 17 kph)
- 10SM
17:53
Mostly Cloudy
82°F / 28°C 68°F / 20°C 62% 29.83 in
(1010 mb)
SSE 11.5 mph
(SSE 19 kph)
- 10SM
16:53
Partly Cloudy
84°F / 29°C 66°F / 19°C 55% 29.83 in
(1010 mb)
S 10.4 mph
(S 17 kph)
- 10SM
15:53
Partly Cloudy
84°F / 29°C 64°F / 18°C 51% 29.86 in
(1011 mb)
S 9.2 mph
(S 15 kph)
- 10SM
14:53
Partly Cloudy
84°F / 29°C 63°F / 17°C 48% 29.89 in
(1012 mb)
S 12.7 mph
(S 20 kph)
- 10SM
13:53
Mostly Cloudy
82°F / 28°C 64°F / 18°C 55% 29.89 in
(1012 mb)
SSE 10.4 mph
(SSE 17 kph)
- 10SM
12:53
Mostly Cloudy
81°F / 27°C 66°F / 19°C 62% 29.92 in
(1013 mb)
SE 9.2 mph
(SE 15 kph)
- 10SM
11:53
Mostly Cloudy
75°F / 24°C 66°F / 19°C 74% 29.92 in
(1013 mb)
SE 11.5 mph
(SE 19 kph)
- 10SM
10:53
Mostly Cloudy
75°F / 24°C 64°F / 18°C 69% 29.95 in
(1014 mb)
Calm - 10SM
09:53
Overcast
73°F / 23°C 64°F / 18°C 74% 29.98 in
(1015 mb)
N 8.1 mph
(N 13 kph)
0.00 in
(0.00 mm)
10SM
09:47
Overcast
Light Rain
73°F / 23°C 64°F / 18°C 74% 29.98 in
(1015 mb)
N 9.2 mph
(N 15 kph)
0.00 in
(0.00 mm)
10SM
09:19
Overcast
Thunder Storms
79°F / 26°C 66°F / 19°C 65% 29.98 in
(1015 mb)
NW 26.5 mph
(NW 43 kph)
0.00 in
(0.00 mm)
10SM
08:53
Mostly Cloudy
79°F / 26°C 64°F / 18°C 61% 29.95 in
(1014 mb)
SSW 11.5 mph
(SSW 19 kph)
- 10SM
07:53
Mostly Cloudy
75°F / 24°C 64°F / 18°C 69% 29.95 in
(1014 mb)
SW 6.9 mph
(SW 11 kph)
- 10SM
06:53
Mostly Cloudy
72°F / 22°C 64°F / 18°C 78% 29.95 in
(1014 mb)
SW 4.6 mph
(SW 7 kph)
- 10SM
05:53
Mostly Cloudy
72°F / 22°C 64°F / 18°C 78% 29.95 in
(1014 mb)
SW 5.8 mph
(SW 9 kph)
- 10SM
04:53
Mostly Cloudy
72°F / 22°C 64°F / 18°C 78% 29.95 in
(1014 mb)
SW 5.8 mph
(SW 9 kph)
- 10SM
03:53
Overcast
72°F / 22°C 64°F / 18°C 78% 29.92 in
(1013 mb)
SSW 3.5 mph
(SSW 6 kph)
0.00 in
(0.00 mm)
10SM
02:53
Overcast
73°F / 23°C 64°F / 18°C 74% 29.92 in
(1013 mb)
SW 12.7 mph
(SW 20 kph)
- 10SM
01:53
Overcast
73°F / 23°C 64°F / 18°C 74% 29.92 in
(1013 mb)
SSE 10.4 mph
(SSE 17 kph)
- 10SM
00:53
Overcast
75°F / 24°C 66°F / 19°C 74% 29.95 in
(1014 mb)
SW 5.8 mph
(SW 9 kph)
- 10SM
Time Weather Temperature Dewpoint Humidity Pressure Winds Precip Visibility


Weather for websites

WeatherForYou.com, LLC is not responsible for any damages or problems caused by this service. Current weather conditions are obtained from the closest station including government and personal stations which may have varying degrees of accuracy. Weather forecasts are derived from the NOAA NDFD. Like all things, this site belongs to Jesus Christ... He just trusts us to maintain it. If you have any questions or comments email webmaster@weatherforyou.com

Copyright © 2016, WeatherForYou.com LLC. All rights reserved.